Volver al catálogo

CZ-6A DEB

ActivoSSO
NORAD 54530·DEBRIS·🇨🇳 China

Lanzado Nov 11, 2022 desde Taiyuan Satellite Launch Center

Loading…

Próximos Pases (próximas 24 horas)

TLE

ActualizadoSource: Space-Track

Época: Sep 14, 2026, 14:33 UTC

1 54530U 22151KJ  26257.60632470  .00000049  00000-0  50152-4 0  9998
2 54530  98.8301 260.6194 0033333  60.8202 299.6298 14.12366696197678

Sigue CZ-6A DEB en tiempo real con AllMySat

Download on the App Store